Reflectivity
-20 -20 -9 -2 -14 -16 -19 20 20 4 -11 -20 -20 -20 -20 -9 -10 -10 -20 -20 -20 -20 8 -17 -15 -20 -20 -20 -20 -20 -20 -20 13 8 14 15 9 1 14 17 16 15 17
-18 -20 -20 -15 14 -16 -5 1 23 26 17 14 7 -20 -20 -6 -11 -12 -20 -20 -20 -20 -20 17 25 -11 -20 -20 -20 -20 -20 9 12 -11 13 13 4 14 19 7 11 12 11
-20 -3 -20 -20 -20 -16 8 5 29 16 26 28 13 7 -19 -20 -19 -20 -18 -20 -20 -20 -20 -20 17 -20 -20 -20 -20 -20 -20 7 8 9 17 -20 -20 -19 16 11 14 18 13
-20 -20 -20 -20 19 -8 9 11 -12 -19 28 23 23 19 -1 -4 14 -20 -20 1 3 -20 -15 -20 9 -11 -3 -20 -13 -11 -9 -20 3 -5 7 -18 13 -12 18 13 16 14 16
-20 -20 -20 -20 -20 -10 -14 5 9 6 13 28 32 24 27 4 -18 -7 -20 -20 -5 -20 -12 -18 -20 -14 2 23 -7 7 -12 -4 -20 -12 9 -19 15 15 -1 3 16 12 17
-20 -20 -20 -20 -20 -20 -18 7 -20 4 -3 35 40 33 18 -19 -12 16 -7 -20 -20 -3 -20 -20 -7 -20 -20 -20 20 21 15 -16 -20 -20 -0 -6 -19 11 11 14 15 15 15
-20 -20 -20 -20 -20 -20 -20 -20 -20 -20 15 27 24 29 36 -0 11 12 -20 -12 -8 -20 -20 -20 -19 -20 -20 -20 -20 5 20 -1 5 -10 -20 -20 -4 10 10 10 12 12 11
-20 -20 -20 -20 -20 -20 -20 -20 -20 -20 -20 -3 29 40 34 20 -8 -1 9 4 -13 2 -18 -20 -11 -13 -20 -20 -20 -20 -1 26 -7 10 -11 -20 10 -5 -17 -1 10 9 7
-20 -20 -20 -20 -20 -20 -20 -20 -20 -20 -20 6 21 29 27 21 -2 13 19 26 -9 -7 -6 8 -13 0 -20 -20 -20 -20 -20 -20 22 13 10 -0 8 -6 7 13 11 10 7
-20 -20 -20 -20 -20 -20 -20 -20 -20 -20 -20 -20 -19 16 28 23 22 28 8 7 25 11 -20 -20 2 -0 -19 -15 -20 -20 -20 -20 -5 22 12 10 10 7 14 4 11 14 1
-20 -20 -20 -20 -20 -20 -20 -20 -20 -20 -20 -20 -20 -20 -12 18 31 29 36 -1 9 21 28 -18 -20 -20 2 -3 -20 -20 -20 -18 -20 -19 24 25 14 16 12 15 12 11 10
-20 -20 -20 -20 -20 -20 -20 -20 -20 -20 -20 -20 -20 -20 -17 -8 13 23 31 20 25 11 25 20 -20 -20 -20 -20 -20 -20 -20 10 10 -20 13 20 9 10 9 4 15 8 10
-20 -20 -20 -20 -20 -20 -20 -20 -20 -20 -20 -20 -20 -20 -20 -20 -20 2 23 26 24 22 27 26 12 -20 -19 -20 -20 -20 -20 -12 13 -11 22 19 9 4 5 -12 1 6 10
-20 -20 -20 -20 -20 -20 -20 -20 -20 -20 -20 -20 -20 -20 -20 -20 -20 -20 2 8 14 26 13 21 21 -3 -7 -19 -20 -20 -20 -20 8 10 -16 -15 8 -20 -17 -20 -12 -0 -18
-20 -20 -20 -20 -20 -20 -20 -20 -20 -20 -20 -20 -20 -20 -20 -20 -20 -20 -17 2 24 15 28 19 9 22 -11 -20 -20 -20 -20 -20 -12 14 12 13 15 -20 -20 -20 -20 -8 -18
-20 -20 -20 -20 -20 -20 -20 -20 -20 -20 -20 -20 -20 -20 -20 -20 -20 -20 -16 -4 11 12 12 31 11 7 22 -11 -11 -20 6 -20 -10 9 2 -20 6 -1 -20 -20 -20 -20 -10
-20 -20 -20 -20 -20 -20 -20 -20 -20 -20 -20 -20 -20 -20 -20 -20 -20 -20 -20 -20 -20 -19 7 7 16 14 8 32 23 22 3 -20 -4 -20 11 -20 -20 -17 -20 -20 9 -2 -20
-20 -20 -20 -20 -20 -20 -20 -20 -20 -20 -20 -20 -20 -20 -20 -20 -20 -20 -20 -20 -20 -20 5 6 -1 27 14 28 31 21 22 28 -20 -19 -14 11 9 -20 -20 -20 16 18 2
-20 -20 -20 -20 -20 -20 -20 -20 -20 -20 -20 -20 -8 -20 -20 -20 -20 -20 -20 -20 -20 -20 -20 -20 -20 -12 12 19 33 31 30 17 10 -4 -20 6 -18 -20 -20 0 0 -14 -20
-20 -20 -20 -20 -20 -20 -20 -20 -20 -20 -20 -20 -20 -20 -12 -18 -20 -18 -8 -2 -20 -20 -20 -11 -9 8 5 35 30 29 32 26 5 -3 -4 -6 4 -10 -20 -20 -5 -20 -20
-20 -20 -20 -20 -20 -20 -20 -20 -19 -20 -3 -16 -15 -1 3 -20 -3 -8 -4 -13 -5 -2 -12 -3 -20 -16 30 14 26 27 22 28 22 -14 14 -0 7 2 6 -17 8 -19 17
-20 -20 -20 -20 -20 -20 -14 5 5 9 8 9 9 -3 4 8 1 3 -18 5 4 -2 1 -0 -20 -13 -13 12 23 25 22 26 29 27 17 -0 -12 -20 -20 -20 8 -20 -20
-20 -20 -20 -20 -20 -20 -9 -9 5 6 12 12 10 9 5 8 8 4 2 -12 4 7 -1 -1 -2 -20 -20 -20 5 34 16 23 32 18 21 19 14 -0 -20 -15 -14 -8 0
-20 -20 -20 -20 -20 -7 -1 7 -4 4 5 -1 5 -9 -17 -20 -14 2 2 3 -20 -20 -20 -19 -11 -20 -20 -20 21 23 39 27 23 28 32 39 31 26 16 -19 14 -16 -20
-20 -20 -20 -20 -20 -20 -8 -5 2 1 6 -4 -20 -20 -20 -20 -20 4 3 3 5 -3 -20 -1 -18 -5 -9 -3 -1 24 38 34 19 24 16 8 27 21 21 28 -3 0 -9
-20 1 -1 -20 -4 -20 -14 5 8 13 15 13 12 4 1 4 -17 -2 -2 6 6 -17 4 6 -18 -13 -20 -20 -20 -1 -3 11 25 27 14 12 17 14 24 10 -1 1 -20
Wind_Speed
10 9 9 9 9 9 10 11 7 5 6 6 6 4 3 6 8 3 5 14 13 11 14 15 18 17 16 15 14 14 14 14 16 14 14 14 14 14 13 13 13 12 11
9 9 9 9 9 10 9 9 11 8 6 5 5 5 6 6 5 4 4 6 14 14 13 13 18 17 16 16 16 15 15 16 16 17 16 16 14 14 13 13 13 12 12
12 10 8 9 10 10 13 11 11 13 7 5 7 7 6 7 6 6 4 5 7 12 12 14 19 19 18 17 17 17 17 16 16 17 16 16 17 14 14 14 13 13 12
13 11 9 8 11 10 9 9 10 9 12 7 7 7 8 9 7 6 4 5 6 7 9 12 17 20 19 19 19 19 18 16 16 18 17 17 16 17 16 14 14 12 13
13 11 8 8 10 8 9 10 9 10 10 11 8 8 7 5 5 6 6 6 8 8 7 11 13 15 18 20 22 21 20 19 17 19 19 18 18 18 17 17 15 13 14
12 11 8 10 9 9 8 9 12 10 10 9 10 9 9 7 6 5 6 5 5 8 8 9 10 9 16 19 21 22 22 22 20 20 19 20 19 19 17 16 16 15 15
11 11 8 9 9 9 10 11 10 13 10 10 10 4 4 3 4 4 4 4 6 6 7 9 7 7 8 19 21 21 21 22 23 23 20 20 21 21 20 18 17 17 15
12 10 10 9 10 9 10 10 11 10 6 8 6 12 3 4 7 9 10 9 9 6 8 10 8 11 10 9 13 21 21 23 26 25 24 22 22 21 21 21 19 19 18
11 11 11 10 10 8 8 9 9 11 9 9 7 7 6 2 2 4 10 11 12 9 9 10 13 10 10 10 13 16 20 22 25 26 26 25 24 23 23 21 21 20 20
11 12 12 10 10 8 10 8 9 8 9 11 8 3 10 7 6 3 7 11 10 12 13 10 11 13 10 8 13 15 18 20 24 27 26 28 25 24 23 24 24 23 22
11 12 11 12 11 9 9 10 10 9 7 8 9 10 10 7 12 7 3 5 10 11 12 12 12 12 13 8 10 12 19 24 25 26 27 28 27 26 25 25 24 24 24
9 10 12 11 11 11 11 11 11 12 9 9 9 9 9 7 8 7 8 6 7 8 11 12 12 11 10 10 11 16 21 24 27 28 29 28 25 26 27 26 26 25 23
9 11 12 12 10 12 13 13 12 12 11 10 10 9 9 10 10 8 10 10 10 5 7 10 11 11 11 11 12 18 23 26 28 29 31 30 27 25 25 26 26 26 24
9 12 12 12 14 13 13 13 11 11 12 10 13 11 10 10 9 10 9 9 12 10 8 6 10 12 11 12 14 22 16 27 29 30 30 30 27 25 25 25 25 24 25
10 12 13 14 15 15 14 14 11 13 13 12 12 12 11 10 10 10 10 9 9 9 10 8 8 12 12 12 14 13 17 24 29 30 29 28 24 23 23 25 23 22 24
12 13 14 14 15 15 15 15 13 13 15 12 11 14 13 10 11 9 10 10 10 10 10 11 10 10 14 12 13 13 16 19 27 29 30 27 25 22 24 25 24 22 21
13 14 15 16 16 16 15 15 15 16 17 16 14 14 15 14 11 10 9 9 11 10 11 13 11 5 5 13 12 12 12 14 14 27 31 30 27 25 24 25 24 24 23
14 15 15 16 16 16 16 16 17 16 17 17 17 16 16 12 16 13 10 12 12 12 11 14 13 12 10 11 13 13 13 12 14 21 27 29 30 30 27 24 27 27 25
15 15 15 16 17 17 17 16 16 17 17 17 18 17 16 16 16 13 13 12 11 11 11 11 13 12 14 12 11 12 13 14 12 16 27 28 29 29 30 28 28 28 27
16 16 16 17 17 18 17 17 17 18 18 18 18 18 17 17 17 16 14 14 13 12 12 12 11 13 13 14 13 15 12 11 12 10 14 19 25 28 29 30 28 26 25
15 16 17 17 17 16 13 17 17 18 18 18 19 18 17 20 28 24 14 14 14 13 11 11 11 11 13 14 16 14 14 12 13 12 12 12 12 14 17 24 23 23 25
15 16 16 17 18 14 26 31 27 17 17 18 18 19 18 25 24 31 32 33 26 16 17 13 13 14 15 14 13 15 12 11 9 12 14 12 11 13 13 14 26 29 28
15 16 17 17 18 18 30 31 31 17 16 16 17 17 17 14 23 18 24 31 31 33 32 20 20 19 19 16 14 18 17 15 12 10 15 12 11 14 12 13 24 28 28
16 15 16 18 18 16 30 31 31 19 16 17 18 18 19 20 18 20 19 20 20 19 21 17 21 21 21 20 18 17 18 16 13 10 16 12 11 12 11 12 20 26 29
15 16 16 18 17 18 29 30 27 16 15 17 16 18 18 20 27 31 22 22 21 20 21 31 33 32 32 30 28 14 16 13 14 13 15 13 10 11 10 12 12 22 25
16 15 17 17 22 19 27 30 26 13 15 13 15 17 27 26 33 35 24 20 19 20 17 19 19 23 29 26 33 23 14 15 16 10 8 13 10 8 3 8 11 11 12
Wind_Direction
6 358 351 351 353 348 344 332 294 249 224 229 263 275 247 246 243 184 162 172 185 215 230 187 189 187 188 184 182 182 169 170 161 160 155 155 148 145 159 146 139 137 133
7 3 350 355 351 344 335 320 322 277 254 212 253 268 275 286 283 287 165 184 186 195 232 213 194 195 199 195 194 190 181 179 170 168 166 162 152 147 162 154 148 165 143
3 3 351 355 347 339 342 334 330 324 257 242 234 241 247 257 265 261 191 176 189 201 210 225 200 202 204 202 197 194 193 188 180 179 177 171 161 164 182 167 159 161 145
1 357 354 353 347 337 341 341 340 327 305 228 220 230 231 233 228 251 238 173 177 195 209 222 213 207 205 205 202 198 196 197 188 184 178 180 172 168 178 175 173 171 161
358 355 346 349 344 348 346 342 341 326 318 310 230 225 226 227 220 226 238 215 182 184 189 207 217 213 210 210 207 200 199 200 194 189 175 181 178 179 185 177 181 177 169
352 350 347 348 348 344 347 333 337 328 308 288 278 232 225 219 221 227 231 219 206 189 191 194 205 212 205 212 214 211 204 198 197 197 186 180 189 189 182 191 183 184 179
350 344 349 345 345 343 341 341 334 330 332 342 309 237 262 295 247 200 233 234 221 203 192 202 204 204 209 205 209 216 211 202 202 199 194 189 190 193 189 192 190 193 188
346 343 347 341 339 337 338 343 343 335 314 3 325 293 225 212 243 228 217 214 216 208 207 213 196 204 199 201 206 209 212 212 203 201 202 199 196 191 196 190 197 190 200
336 347 342 338 337 335 333 334 331 345 327 322 340 287 316 303 220 206 230 218 217 207 217 212 216 206 194 191 195 203 204 209 210 203 207 201 200 201 197 198 199 198 203
341 339 334 332 334 331 329 326 330 328 331 318 323 341 314 324 314 262 221 225 225 226 211 215 215 212 200 182 186 191 195 198 204 213 208 204 203 203 204 208 200 204 205
335 330 330 332 330 330 322 322 325 321 314 303 308 312 314 297 262 259 237 214 222 226 226 216 215 216 210 181 182 190 190 196 199 204 215 209 205 204 205 208 205 205 208
323 323 326 325 325 319 321 319 313 307 305 298 296 296 296 302 316 325 326 335 247 230 222 219 217 216 211 206 191 187 192 198 200 201 209 212 210 208 207 210 209 207 210
317 315 319 315 317 317 313 310 307 303 298 291 289 286 282 276 283 280 278 284 280 240 234 229 220 217 211 207 207 190 192 195 201 204 205 210 207 203 210 210 210 205 210
304 309 307 313 310 308 308 305 300 298 293 291 289 281 280 279 278 279 277 291 296 282 221 225 221 219 211 207 205 192 193 195 199 205 207 210 207 202 206 211 214 210 206
301 304 306 306 305 302 302 302 297 295 292 289 284 283 277 275 272 272 269 262 257 279 281 228 227 224 217 214 208 193 199 197 199 201 205 208 206 202 202 203 210 215 204
304 304 303 302 301 300 298 297 295 292 291 289 287 284 282 281 278 275 278 281 267 270 270 291 231 210 214 214 200 192 198 186 200 202 203 205 207 200 198 201 204 210 205
305 302 301 299 297 295 294 292 290 291 286 286 285 286 284 288 283 276 271 267 266 258 262 273 290 228 218 230 213 199 191 193 198 206 203 203 205 203 197 200 203 207 205
301 299 297 294 293 292 293 289 288 288 287 288 287 285 283 284 281 280 276 271 272 279 275 273 265 285 228 225 222 206 204 199 201 204 209 209 207 207 204 200 206 206 206
298 298 296 293 292 291 290 287 285 283 281 280 281 280 282 281 280 278 276 276 274 277 277 272 279 277 273 210 222 220 211 212 211 198 203 207 209 208 208 205 207 204 204
298 296 294 292 290 288 286 285 283 281 277 275 274 272 270 270 273 279 279 280 277 274 278 279 266 267 269 227 212 219 208 207 209 205 201 205 211 213 212 212 210 205 203
294 294 293 291 289 287 285 285 280 278 276 273 273 271 267 264 266 265 265 263 265 270 273 277 266 263 254 278 213 208 210 204 206 202 206 204 204 210 214 218 214 208 208
296 295 293 291 290 286 289 291 290 283 276 273 273 273 269 269 271 273 272 269 262 256 259 262 265 271 264 245 275 206 198 204 195 202 202 210 197 209 208 208 213 212 211
298 293 292 289 288 287 289 291 291 286 279 274 273 272 275 269 273 271 272 272 268 263 256 258 258 253 265 270 270 283 199 206 205 187 193 210 193 216 206 208 206 208 208
296 294 292 290 288 288 295 297 294 288 280 273 272 273 270 272 265 265 265 262 257 252 251 253 255 258 255 263 260 276 292 242 217 198 189 208 193 214 211 213 206 207 208
296 295 291 290 293 293 294 293 297 291 280 273 268 267 266 266 269 268 269 267 263 258 253 250 253 259 261 257 251 258 261 299 228 209 196 188 192 201 198 208 208 205 207
294 295 296 294 292 294 293 297 296 284 280 278 273 268 269 270 272 274 270 261 259 260 258 254 251 254 257 258 262 251 254 247 268 210 184 194 175 163 193 214 210 211 210